Location: Muenchen
(48.1800°N, 11.5800°E)
Time: 13:39:45
(UTC+02:00)

ISS - Visible Passes

Search period start: 18 April 2015 00:00
Search period end: 28 April 2015 00:00
Orbit: 396 x 403 km, 51.6° (Epoch: 18 April)

Date Brightness Start Highest point End Pass type
(mag) Time Alt. Az. Time Alt. Az. Time Alt. Az.
18 Apr -3.1 21:09:41 10° WNW 21:12:55 59° SSW 21:15:11 18° SE visible
18 Apr -0.4 22:47:39 10° WSW 22:47:44 10° WSW 22:47:44 10° WSW visible
19 Apr -1.4 21:52:40 10° W 21:55:06 19° SW 21:56:02 17° SSW visible
20 Apr -2.0 20:58:22 10° W 21:01:20 32° SW 21:04:17 10° SSE visible
21 Apr -0.5 21:42:54 10° SW 21:43:15 10° SW 21:43:30 10° SW visible
22 Apr -1.0 20:47:09 10° W 20:49:28 18° SW 20:51:43 10° S visible
